Regional Weather Roundup
Issued by NWS

Home | Current Version | Previous Version | Text Only | Print | Product List | Glossary On
Versions: 1 2 3 4 5 6 7 8 9 10 11 12 13 14 15 16 17 18 19 20 21 22 23 24 25 26 27 28 29 30 31 32 33 34 35 36 37 38 39 40 41 42 43 44 45 46 47 48 49 50
000
ASUS43 KDTX 312301
RWRMI
MICHIGAN HOURLY REGIONAL WEATHER ROUNDUP
NATIONAL WEATHER SERVICE DETROIT/PONTIAC MI
600 PM EST SAT JAN 31 2015

NOTE: "FAIR" INDICATES FEW OR NO CLOUDS BELOW 12,000 FEET WITH NO
SIGNIFICANT WEATHER AND/OR OBSTRUCTION TO VISIBILITY.

MIZ047>049-052>055-059>063-066>070-074>076-081>083-010000-
SOUTHEAST LOWER MICHIGAN

CITY           SKY/WX    TMP DP  RH WIND       PRES   REMARKS
ADRIAN         MOCLDY    32  23  69 SW6       30.19S WCI  26
ALMA           CLOUDY    32  27  81 W7        30.17R WCI  25
ANN ARBOR      CLOUDY    34  23  64 SW7       30.17R WCI  28
BAD AXE        CLOUDY    29  24  83 W3        30.16R
CARO           CLOUDY    31  24  77 CALM      30.16R
DETROIT CITY   CLOUDY    34  22  61 SW8       30.18S WCI  27
DETROIT        CLOUDY    33  23  66 S9        30.19R WCI  25
FLINT          CLOUDY    33  21  61 W5        30.17R WCI  29
GROSSE ILE     CLOUDY    34  25  69 SW9       30.18R WCI  26
HILLSDALE      MOCLDY    33  21  61 CALM      30.15S
HOWELL         CLOUDY    32  22  66 W3        30.15S

CITY           SKY/WX    TMP DP  RH WIND       PRES   REMARKS
JACKSON        MOCLDY    32  21  64 SW3       30.16S
LAMBERTVILLE   MOCLDY    34  23  64 SW3       30.20S
LANSING        CLOUDY    33  22  63 W3        30.17R
LAPEER         CLOUDY    31  20  64 W3        30.16R
MASON          CLOUDY    33  21  62 SW3       30.16R
MONROE         CLOUDY    34  25  69 SW8       30.18S WCI  27
MT. CLEMENS    CLOUDY    33  21  62 SW9       30.15S WCI  25
PONTIAC        CLOUDY    32  19  58 SW5       30.15R WCI  27
PORT HOPE        N/A     28  21  75 VRB6      30.15R WCI  22
PORT HURON     CLOUDY    28  23  80 CALM      30.18R
TRI CITIES     CLOUDY    32  25  75 W6        30.17R WCI  26
TROY           CLOUDY    34  20  56 SW6       30.18R WCI  29
SAGINAW HB     CLOUDY    32  27  80 SW3       30.16R
$$
MIZ043>046-050>051-056>058-064>065-071>073-077>080-010000-
SOUTHWEST LOWER MICHIGAN

CITY           SKY/WX    TMP DP  RH WIND       PRES   REMARKS
BATTLE CREEK   MOCLDY    32  21  64 W6        30.16S WCI  26
BENTON HARBOR  CLOUDY    33  26  75 CALM      30.18S
BIG RAPIDS     CLOUDY    30  24  78 NW5       30.15R WCI  25
COLDWATER      MOCLDY    32  24  73 SW5       30.16S WCI  27
FREMONT        CLOUDY    30  22  73 N5        30.17R WCI  25
HOLLAND        CLOUDY    33  24  69 W5        30.18S WCI  29
GRAND RAPIDS   CLOUDY    32  25  75 W7        30.17R WCI  26
IONIA          CLOUDY    32  27  81 W8        30.15S WCI  25
KALAMAZOO      MOCLDY    33  22  63 W5        30.17R WCI  29
LUDINGTON      CLOUDY    31  24  75 N5        30.20R WCI  26
MARSHALL       MOCLDY    31  21  66 CALM      30.15S
MOUNT PLEASANT CLOUDY    31  24  74 W3        30.16R
MUSKEGON       CLOUDY    31  23  72 NW7       30.18S WCI  24
SOUTH HAVEN    MOCLDY    33  25  73 CALM      30.18R
$$
MIZ016>042-010000-
NORTHERN LOWER MICHIGAN

CITY           SKY/WX    TMP DP  RH WIND       PRES   REMARKS
ALPENA         CLOUDY    26  18  71 NW6       30.15R WCI  19
BEAVER ISLAND  MOCLDY    19  11  70 CALM      30.22R
BELLAIRE       FLURRIES  26  21  82 N3        30.20R
CADILLAC       CLOUDY    25  20  81 NW3       30.14R
CHARLEVOIX     CLOUDY    24  17  76 N13G20    30.23R WCI  12
FRANKFORT      CLOUDY    27  21  77 CALM      30.20R
GAYLORD        LGT SNOW  22  19  89 VRB5      30.13R FOG     WCI  16
GRAYLING       FLURRIES  26  20  80 NW6       30.15R WCI  19
HARBOR SPRINGS FLURRIES  23  16  73 NW9G17    30.19R WCI  13
HOUGHTON LAKE  CLOUDY    24  19  81 NW7       30.15R WCI  16
MANISTEE       CLOUDY    28  19  69 N6        30.20R WCI  22
OSCODA         CLOUDY    27  21  77 W6        30.16R WCI  20
PELLSTON       LGT SNOW  22  17  81 NW14      30.19R WCI   9
TRAVERSE CITY  LGT SNOW  27  21  78 N10       30.18R WCI  17
$$
MIZ007>008-015-010000-
EASTERN UPPER MICHIGAN

CITY           SKY/WX    TMP DP  RH WIND       PRES   REMARKS
KINROSS        CLOUDY    18  16  93 NW14G22   30.16R WCI   4
MACKINAC ISLAN CLOUDY    22  13  68 NW13G23   30.17R WCI   9
NEWBERRY       CLOUDY    16  10  76 NW8G18    30.20R WCI   5
S. S. MARIE    CLEAR     16   7  67 NW16      30.17R WCI   1
$$
MIZ004>006-011>014-085-010000-
CENTRAL UPPER MICHIGAN

CITY           SKY/WX    TMP DP  RH WIND       PRES   REMARKS
MANISTIQUE     FLURRIES  19  12  73 N15G22    30.23R WCI   5
ESCANABA       PTCLDY    19   9  63 N12G18    30.25R WCI   7
MENOMINEE      CLOUDY    25  19  80 E14       30.22R WCI  13
SAWYER-GWINN   LGT SNOW  14   9  79 N10       30.22R WCI   1
$$
MIZ001>003-009>011-084-010000-
WESTERN UPPER MICHIGAN

CITY           SKY/WX    TMP DP  RH WIND       PRES   REMARKS
IRON MOUNTAIN  CLOUDY    19   9  65 N14       30.21R WCI   6
HOUGHTON       LGT SNOW  10   2  69 NE9       30.28R WCI  -3
COPPER HARBOR    N/A     12   5  73 NE20G28   30.34R WCI  -6
IRONWOOD       CLOUDY    16   7  67 NE6       30.23R WCI   7
$$

ABBREVIATIONS USED IN REMARKS
   TC - TEMPERATURE IN CELSIUS
  WCI - WIND CHILL INDEX
   HX - HEAT INDEX
  VSB - VISIBILITY



USA.gov is the U.S. government's official web portal to all federal, state and local government web resources and services.